Stations météo

réclame
Mon MeteoGroup
Waldmünchen, Allemagne (10782): Température de l'air & dewpoint: 17.10.2018 07:00:00 - 23.10.2018 07:00:00 (CEST)Waldmünchen, Allemagne (10782): Température de l'air 5cm & Température de l'air -5cm: 17.10.2018 07:00:00 - 23.10.2018 07:00:00 (CEST)Waldmünchen, Allemagne (10782): Température de l'air -20cm & Température de l'air -100cm: 17.10.2018 07:00:00 - 23.10.2018 07:00:00 (CEST)Waldmünchen, Allemagne (10782): Vitesse du vent & gusts: 17.10.2018 07:00:00 - 23.10.2018 07:00:00 (CEST)Waldmünchen, Allemagne (10782): Direction du vent: 17.10.2018 07:00:00 - 23.10.2018 07:00:00 (CEST)Waldmünchen, Allemagne (10782): reduced air pressure: 17.10.2018 07:00:00 - 23.10.2018 07:00:00 (CEST)Waldmünchen, Allemagne (10782): visibility: 17.10.2018 07:00:00 - 23.10.2018 07:00:00 (CEST)Waldmünchen, Allemagne (10782): Ensoleillement: 17.10.2018 07:00:00 - 23.10.2018 07:00:00 (CEST)Waldmünchen, Allemagne (10782): Quantités de précipitations: 17.10.2018 07:00:00 - 23.10.2018 07:00:00 (CEST)
Date & Time tt [°C] td [°C] tt 5cm [°C] tt -5cm [°C] tt -20cm [°C] tt -100cm [°C] ff [km/h] ff [knt] fx [km/h] fx [knt] dd ppp [hPa] vv [km] sd [min] rr [mm]
23.10.2018 07:00:00 2,9 2,3 1,5 5,9 9,9 13,0 3 2 10 6 SSE 1029,0 7 0 0,0
23.10.2018 06:00:00 2,7 2,5 2,4 5,9 10,1 13,0 5 3 7 4 E 1030,3 1,1 0 0,0
23.10.2018 05:00:00 3,4 2,9 0,5 6,6 10,2 13,0 3 2 11 6 NNE 1030,2 1,2 0 0,0
23.10.2018 04:00:00 5,0 4,0 3,1 7,8 10,3 13,0 6 3 8 5 WNW 1030,3 23 0 0,0
23.10.2018 03:00:00 6,2 4,9 5,8 8,4 10,4 13,0 4 2 7 4 NNE 1030,4 27 0 0,0
23.10.2018 02:00:00 6,7 4,4 6,2 8,6 10,5 13,0 3 2 9 5 ENE 1030,4 35 0 0,0
23.10.2018 01:00:00 7,0 4,7 6,5 8,9 10,5 13,0 8 4 13 7 NNE 1030,8 39 0 0,0
23.10.2018 00:00:00 7,5 5,7 7,1 9,2 10,6 13,0 6 3 16 9 N 1030,9 28 0 0,0
22.10.2018 23:00:00 8,2 6,3 7,7 9,5 10,6 13,0 9 5 17 9 N 1030,3 21 0 0,0
22.10.2018 22:00:00 8,5 7,0 8,0 9,9 10,6 13,0 9 5 20 11 N 1030,0 8 0 0,0
22.10.2018 21:00:00 9,2 7,5 8,4 10,3 10,6 13,0 9 5 15 8 NNE 1029,5 9 0 1,0
22.10.2018 20:00:00 9,8 7,0 8,7 10,7 10,6 13,1 6 3 16 9 NNE 1028,7 9 0 0,1
22.10.2018 19:00:00 11,0 4,6 9,7 11,2 10,5 13,1 6 3 9 5 NW 1027,8 20 0 0,0
22.10.2018 18:00:00 11,9 4,0 10,9 12,1 10,3 13,1 4 2 17 9 NNW 1027,2 20 0 0,0
22.10.2018 17:00:00 12,5 3,5 12,5 13,0 10,0 13,1 12 6 22 12 NW 1026,8 19 0 0,0
22.10.2018 16:00:00 13,6 1,9 14,5 14,0 9,6 13,1 10 5 21 12 NNE 1026,2 27 46 0,0
22.10.2018 15:00:00 13,3 2,5 16,2 14,2 9,2 13,1 14 7 22 12 W 1026,5 15 60 0,0
22.10.2018 14:00:00 12,9 2,6 16,5 13,9 8,8 13,1 11 6 16 9 W 1026,7 16 60 0,0
22.10.2018 13:00:00 11,8 2,1 15,3 12,3 8,4 13,1 10 5 15 8 WSW 1027,1 17 60 0,0
22.10.2018 12:00:00 9,9 3,5 14,2 9,7 8,3 13,1 7 4 10 6 SW 1027,8 18 60 0,0
22.10.2018 11:00:00 5,5 2,2 9,2 6,5 8,3 13,1 7 4 10 5 WSW 1029,4 13 60 0,0
22.10.2018 10:00:00 1,7 -0,5 4,5 3,6 8,4 13,1 0 0 4 2 N 1030,3 9 60 0,0
22.10.2018 09:00:00 -0,5 -1,2 -0,5 2,4 8,6 13,1 4 2 5 3 ESE 1030,7 5 31 0,0
22.10.2018 08:00:00 -2,1 -2,5 -3,8 2,4 8,9 13,1 3 2 4 2 NE 1030,4 4,5 0 0,0
22.10.2018 07:00:00 -1,6 -1,8 -3,2 2,7 9,1 13,1 5 3 6 4 E 1030,2 4,3 0 0,0
22.10.2018 06:00:00 -1,6 -1,8 -3,1 3,1 9,3 13,1 0 0 5 3 N 1029,9 4,5 0 0,0
22.10.2018 05:00:00 -1,5 -1,9 -3,5 3,4 9,6 13,1 3 2 6 3 ESE 1030,0 4,1 0 0,0
22.10.2018 04:00:00 -1,0 -1,3 -2,7 3,7 9,8 13,1 6 4 9 5 E 1030,0 4,0 0 0,0
22.10.2018 03:00:00 -0,5 -0,7 -2,2 4,1 10,1 13,1 3 2 5 3 E 1030,2 3,3 0 0,0
22.10.2018 02:00:00 -0,5 -0,8 -1,4 4,5 10,3 13,1 4 2 6 3 E 1030,5 4,0 0 0,0
22.10.2018 01:00:00 0,0 -0,4 -0,7 5,0 10,6 13,1 4 2 5 3 E 1030,5 3,9 0 0,0
22.10.2018 00:00:00 0,8 0,3 -0,5 5,4 10,9 13,1 3 2 6 3 E 1030,5 7 0 0,0
21.10.2018 23:00:00 1,2 0,7 -1,6 6,0 11,1 13,1 0 0 6 4 N 1030,4 8 0 0,0
21.10.2018 22:00:00 1,9 1,3 0,9 6,8 11,4 13,1 4 2 6 3 E 1030,4 9 0 0,0
21.10.2018 21:00:00 2,5 1,5 0,2 7,8 11,6 13,2 3 2 10 5 E 1030,1 12 0 0,0
21.10.2018 20:00:00 3,8 2,0 2,5 9,0 11,7 13,2 3 2 12 6 ENE 1029,6 15 0 0,0
21.10.2018 19:00:00 6,6 3,2 4,9 10,5 11,7 13,2 4 2 9 5 E 1029,1 19 0 0,0
21.10.2018 18:00:00 10,3 2,6 8,4 12,3 11,6 13,2 6 3 15 8 ENE 1027,9 21 36 0,0
21.10.2018 17:00:00 12,0 1,0 13,9 12,9 11,5 13,2 4 2 12 7 ENE 1027,5 26 48 0,0
21.10.2018 16:00:00 11,6 1,0 11,9 14,0 11,2 13,2 10 5 17 9 E 1028,0 27 39 0,0
21.10.2018 15:00:00 12,9 1,7 16,1 13,8 11,0 13,2 4 2 16 9 E 1028,0 22 35 0,0
21.10.2018 14:00:00 10,5 4,0 11,6 14,2 10,7 13,2 14 7 27 15 ENE 1029,1 17 32 0,0
21.10.2018 13:00:00 11,3 3,7 15,2 13,1 10,5 13,2 17 9 27 15 E 1028,8 13 39 0,0
21.10.2018 12:00:00 10,7 4,3 13,7 12,0 10,3 13,2 9 5 22 12 NE 1029,3 13 33 0,0
21.10.2018 11:00:00 9,0 4,4 12,1 10,3 10,3 13,2 6 3 10 5 SSW 1029,9 12 44 0,0
21.10.2018 10:00:00 6,7 3,9 9,8 8,2 10,4 13,2 4 2 6 3 SW 1030,3 9 33 0,0
21.10.2018 09:00:00 4,9 3,3 4,8 6,8 10,6 13,2 3 2 8 4 SSE 1030,7 6 23 0,0
21.10.2018 08:00:00 3,7 2,9 2,7 6,8 10,7 13,2 4 2 8 4 ESE 1030,3 4,0 0 0,0
21.10.2018 07:00:00 5,2 3,3 3,5 7,7 10,8 13,2 3 2 5 3 S 1029,6 8 0 0,0
21.10.2018 06:00:00 6,0 3,9 3,4 8,2 10,9 13,2 2 1 10 6 NW 1029,5 9 0 0,0
21.10.2018 05:00:00 7,4 3,6 6,4 8,3 11,0 13,2 9 5 14 8 NE 1029,1 12 0 0,0
21.10.2018 04:00:00 7,4 3,4 5,4 8,6 11,1 13,2 8 5 14 8 NE 1029,1 13 0 0,0
21.10.2018 03:00:00 7,5 3,9 6,4 8,8 11,2 13,2 6 3 12 7 NE 1029,1 11 0 0,0
21.10.2018 02:00:00 8,4 3,8 7,5 8,9 11,3 13,2 8 4 18 10 ENE 1029,1 13 0 0,0
21.10.2018 01:00:00 8,8 3,9 7,7 9,0 11,4 13,2 9 5 19 10 NE 1029,1 13 0 0,0
21.10.2018 00:00:00 9,1 4,0 8,0 9,1 11,6 13,2 12 6 18 10 NE 1029,4 13 0 0,0
20.10.2018 23:00:00 9,2 3,9 7,7 9,4 11,7 13,2 11 6 16 9 NE 1029,3 14 0 0,0
20.10.2018 22:00:00 9,7 4,1 8,5 9,4 11,8 13,2 11 6 16 8 NE 1029,2 17 0 0,0
20.10.2018 21:00:00 8,6 4,8 6,5 9,7 12,0 13,3 5 3 10 5 NE 1029,4 14 0 0,0
20.10.2018 20:00:00 8,2 6,2 5,8 10,4 12,0 13,3 5 3 10 5 WSW 1028,9 8 0 0,0
20.10.2018 19:00:00 9,9 6,6 7,9 11,4 12,0 13,3 4 2 8 4 ENE 1028,2 10 0 0,0
20.10.2018 18:00:00 12,0 6,0 10,0 12,7 12,0 13,3 8 5 19 10 WNW 1027,2 10 37 0,0
20.10.2018 17:00:00 13,2 5,1 12,7 13,8 11,8 13,3 16 9 25 14 W 1026,8 12 40 0,0
20.10.2018 16:00:00 13,8 6,5 14,7 14,8 11,5 13,3 18 10 29 16 W 1027,1 9 19 0,0
20.10.2018 15:00:00 14,5 4,9 17,5 15,0 11,2 13,3 11 6 24 13 NW 1026,7 12 44 0,0
20.10.2018 14:00:00 14,4 7,0 17,9 14,8 10,9 13,3 12 7 25 13 W 1027,3 8 29 0,0
20.10.2018 13:00:00 12,6 8,3 16,2 14,2 10,6 13,3 5 3 15 8 WSW 1028,0 4,0 49 0,0
20.10.2018 12:00:00 10,3 7,9 13,6 11,7 10,5 13,3 6 4 9 5 SW 1028,8 3,1 13 0,0
20.10.2018 11:00:00 8,7 7,0 9,8 10,4 10,5 13,3 3 1 4 2 W 1028,7 2,8 0 0,0
20.10.2018 10:00:00 6,7 5,8 7,7 8,8 10,5 13,3 3 1 7 4 SSE 1028,7 2,3 0 0,0
20.10.2018 09:00:00 5,8 5,4 6,4 8,3 10,5 13,3 7 4 14 8 W 1028,5 1,9 0 0,0
20.10.2018 08:00:00 5,4 5,1 5,6 8,0 10,6 13,3 4 2 14 8 SE 1028,1 1,5 0 0,0
20.10.2018 07:00:00 5,1 4,8 5,3 8,0 10,7 13,3 0 0 6 4 N 1027,7 1,8 0 0,0
20.10.2018 06:00:00 4,5 4,0 5,1 7,7 10,8 13,3 0 0 5 3 N 1027,4 1,1 0 0,0
20.10.2018 05:00:00 4,3 4,3 4,4 7,6 10,9 13,3 3 2 5 3 ESE 1027,1 0,1 0 0,1
20.10.2018 04:00:00 3,9 3,8 3,9 7,6 11,1 13,3 1 1 4 2 ESE 1027,0 0,1 0 0,0
20.10.2018 03:00:00 3,8 3,8 4,0 7,5 11,2 13,3 0 0 5 3 N 1027,0 - 0 0,0
20.10.2018 02:00:00 3,8 3,8 3,0 7,8 11,4 13,3 4 2 7 4 E 1026,8 0,1 0 0,0
20.10.2018 01:00:00 4,5 4,4 4,2 7,7 11,6 13,3 0 0 4 2 N 1026,5 - 0 0,0
20.10.2018 00:00:00 5,9 5,7 2,7 7,8 11,8 13,3 0 0 4 2 E 1025,9 0,1 0 0,0
19.10.2018 23:00:00 7,4 7,3 3,7 8,4 12,0 13,3 2 1 6 3 ENE 1025,5 0,9 0 0,0
19.10.2018 22:00:00 8,0 7,6 4,0 9,0 12,2 13,3 3 1 5 3 W 1025,2 1,2 0 0,0
19.10.2018 21:00:00 9,6 8,1 5,7 9,9 12,3 13,3 4 2 13 7 W 1024,5 2,5 0 0,0
19.10.2018 20:00:00 9,7 8,0 7,1 10,8 12,4 13,3 9 5 16 9 NE 1024,1 2,6 0 0,0
19.10.2018 19:00:00 10,7 7,9 8,0 11,8 12,4 13,3 9 5 18 10 NE 1023,7 3,2 0 0,0
19.10.2018 18:00:00 11,8 8,3 10,3 13,0 12,4 13,3 10 6 24 13 NE 1023,1 3,5 2 0,0
19.10.2018 17:00:00 12,7 8,5 12,8 13,9 12,2 13,3 16 9 26 14 ENE 1023,0 3,7 60 0,0
19.10.2018 16:00:00 13,1 8,6 14,7 14,7 12,0 13,4 17 9 33 18 NE 1022,8 3,9 60 0,0
19.10.2018 15:00:00 13,1 8,6 15,4 15,1 11,7 13,4 21 11 38 20 NE 1022,9 3,6 60 0,0
19.10.2018 14:00:00 12,7 8,7 15,6 14,8 11,4 13,4 24 13 37 20 NE 1023,3 3,9 60 0,0
19.10.2018 13:00:00 14,0 8,9 16,8 14,2 11,2 13,4 22 12 35 19 NE 1023,2 4,2 60 0,0
19.10.2018 12:00:00 12,9 8,3 15,4 12,7 11,1 13,4 20 11 36 20 ENE 1023,5 4,1 59 0,0
19.10.2018 11:00:00 11,2 8,3 13,5 11,3 11,0 13,4 24 13 34 18 NE 1023,6 3,2 60 0,0
19.10.2018 10:00:00 10,5 8,2 11,2 10,1 11,0 13,4 17 9 29 16 ENE 1023,9 3,0 13 0,0
19.10.2018 09:00:00 10,1 8,3 9,7 9,4 11,1 13,4 18 10 31 17 NE 1023,5 2,8 0 0,0
19.10.2018 08:00:00 10,1 8,2 9,0 9,1 11,1 13,4 24 13 33 18 NE 1022,8 2,8 0 0,0
19.10.2018 07:00:00 10,0 8,0 8,7 9,0 11,2 13,4 20 11 31 17 NE 1022,7 2,2 0 0,0
19.10.2018 06:00:00 9,9 7,9 8,2 8,8 11,3 13,4 20 11 26 14 NNE 1022,4 2,4 0 0,0
19.10.2018 05:00:00 9,2 7,2 7,5 8,7 11,5 13,4 12 6 24 13 NE 1022,6 2,1 0 0,0
19.10.2018 04:00:00 9,4 7,6 7,7 8,7 11,6 13,4 14 8 24 13 NE 1022,7 2,4 0 0,0
19.10.2018 03:00:00 9,4 7,4 7,2 8,7 11,7 13,4 10 5 18 10 NE 1022,8 2,6 0 0,0
19.10.2018 02:00:00 9,5 7,5 6,3 9,2 11,9 13,4 5 3 21 11 NNE 1023,0 2,9 0 0,0
19.10.2018 01:00:00 9,4 7,4 7,8 9,5 12,0 13,4 18 10 22 12 NNE 1022,9 3,2 0 0,0
19.10.2018 00:00:00 10,4 7,8 8,8 9,5 12,2 13,4 16 9 20 11 NE 1022,7 4,1 0 0,0
18.10.2018 23:00:00 10,2 7,5 6,7 9,5 12,4 13,4 8 4 11 6 ENE 1022,8 4,2 0 0,0
18.10.2018 22:00:00 10,4 8,0 6,8 9,8 12,5 13,4 2 1 10 6 N 1022,3 6 0 0,0
18.10.2018 21:00:00 9,2 8,0 6,9 10,5 12,7 13,4 5 3 8 4 NE 1022,2 4,4 0 0,0
18.10.2018 20:00:00 10,8 8,3 6,0 11,5 12,8 13,4 1 1 8 5 W 1021,0 6 0 0,0
18.10.2018 19:00:00 12,1 8,5 8,7 12,8 12,7 13,4 5 3 9 5 NE 1020,3 9 0 0,0
18.10.2018 18:00:00 14,9 8,5 11,8 14,3 12,6 13,4 4 2 14 8 NE 1019,1 11 34 0,0
18.10.2018 17:00:00 17,1 7,8 16,9 15,5 12,3 13,4 11 6 19 11 NE 1018,5 13 60 0,0
18.10.2018 16:00:00 17,5 8,2 19,7 16,3 11,9 13,4 13 7 21 11 NNE 1018,4 11 60 0,0
18.10.2018 15:00:00 17,3 7,9 20,0 16,7 11,5 13,4 14 7 24 13 NE 1018,5 10 60 0,0
18.10.2018 14:00:00 17,1 7,9 20,9 16,1 11,1 13,4 13 7 21 11 NE 1018,7 10 60 0,0
18.10.2018 13:00:00 16,9 8,0 19,5 15,3 10,8 13,4 14 7 21 11 ENE 1018,9 9 47 0,0
18.10.2018 12:00:00 16,0 9,6 19,0 13,8 10,6 13,4 7 4 9 5 SW 1019,4 8 58 0,0
18.10.2018 11:00:00 10,7 7,7 12,2 10,7 10,5 13,4 4 2 7 4 SW 1020,8 7 60 0,0
18.10.2018 10:00:00 7,0 5,1 9,2 8,0 10,6 13,4 0 0 3 2 N 1021,6 4,0 60 0,0
18.10.2018 09:00:00 5,3 5,1 5,7 6,5 10,8 13,4 3 1 5 3 E 1021,7 2,2 18 0,0
18.10.2018 08:00:00 3,0 2,7 1,8 6,3 11,0 13,4 0 0 5 3 N 1021,9 0,1 0 0,0
18.10.2018 07:00:00 4,2 4,1 1,7 6,6 11,2 13,4 1 1 4 2 S 1021,3 0,4 0 0,0
18.10.2018 06:00:00 4,7 4,6 2,5 6,9 11,4 13,5 0 0 5 3 N 1021,1 1,9 0 0,0
18.10.2018 05:00:00 4,7 4,4 2,3 7,1 11,6 13,5 2 1 7 4 WNW 1021,1 1,1 0 0,0
18.10.2018 04:00:00 4,8 4,5 3,0 7,5 11,8 13,5 2 1 5 3 ENE 1021,2 0,2 0 0,0
18.10.2018 03:00:00 5,4 5,0 3,2 8,0 12,0 13,5 5 3 10 5 E 1021,1 2,0 0 0,0
18.10.2018 02:00:00 5,7 5,4 3,4 8,5 12,2 13,5 4 2 13 7 NW 1021,2 2,2 0 0,0
18.10.2018 01:00:00 5,7 5,2 4,8 8,8 12,5 13,5 3 2 9 5 E 1021,4 2,5 0 0,0
18.10.2018 00:00:00 6,6 6,2 4,2 9,3 12,7 13,5 2 1 6 4 NE 1021,2 2,8 0 0,0
17.10.2018 23:00:00 7,6 7,1 4,9 10,0 12,9 13,5 3 2 12 6 W 1021,0 4,6 0 0,0
17.10.2018 22:00:00 7,7 7,2 6,1 10,6 13,0 13,5 3 2 10 5 NE 1020,9 4,1 0 0,0
17.10.2018 21:00:00 9,1 7,9 7,4 11,4 13,2 13,5 3 2 6 3 E 1020,3 6 0 0,0
17.10.2018 20:00:00 10,2 8,4 8,4 12,4 13,3 13,5 5 3 8 4 E 1019,8 7 0 0,0
17.10.2018 19:00:00 12,7 9,2 9,7 13,7 13,2 13,5 4 2 8 4 E 1018,9 8 0 0,0
17.10.2018 18:00:00 15,9 9,3 13,9 15,3 13,0 13,5 6 4 11 6 NE 1018,0 9 45 0,0
17.10.2018 17:00:00 19,7 7,0 19,2 16,7 12,7 13,5 4 2 11 6 SW 1017,0 12 60 0,0
17.10.2018 16:00:00 19,6 7,0 21,1 17,8 12,3 13,5 6 4 11 6 SW 1017,3 11 60 0,0
17.10.2018 15:00:00 19,5 7,4 22,0 18,2 11,8 13,5 3 2 11 6 S 1017,5 9 60 0,0
17.10.2018 14:00:00 18,7 7,7 22,4 17,6 11,3 13,5 4 2 12 7 W 1018,2 10 60 0,0
17.10.2018 13:00:00 17,4 8,3 20,7 16,2 11,0 13,5 7 4 11 6 W 1018,9 8 60 0,0
17.10.2018 12:00:00 16,0 8,6 19,5 13,8 10,7 13,5 4 2 7 4 WSW 1019,7 9 60 0,0
17.10.2018 11:00:00 11,7 7,7 14,6 11,0 10,7 13,5 3 2 8 4 SW 1020,7 8 60 0,0
17.10.2018 10:00:00 8,6 6,6 10,5 8,5 10,8 13,5 3 1 7 4 W 1021,0 6 60 0,0
17.10.2018 09:00:00 5,3 4,6 6,0 6,8 10,9 13,5 3 2 5 3 ESE 1021,9 3,5 25 0,0
17.10.2018 08:00:00 3,9 3,7 2,7 6,6 11,1 13,5 1 1 7 4 ESE 1022,1 2,3 0 0,0
17.10.2018 07:00:00 3,7 3,3 2,8 6,8 11,3 13,5 6 3 7 4 E 1021,9 1,9 0 0,0

tt = Température de l'air
td = dewpoint
tt 5cm = Température de l'air 5cm
tt -5cm = Température de l'air -5cm
tt -20cm = Température de l'air -20cm
tt -100cm = Température de l'air -100cm
ff = Vitesse du vent
fx = gusts
dd = Direction du vent
ppp = reduced air pressure
vv = visibility
sd = Ensoleillement
rr = Quantités de précipitations

stations d'obs. à proximité